Time,TemperatureF,DewpointF,PressureIn,WindDirection,WindDirectionDegrees,WindSpeedMPH,WindSpeedGustMPH,Humidity,HourlyPrecipIn,Conditions,Clouds,dailyrainin,SoftwareType,DateUTC
2013-01-13 00:00:00,30.9,29.4,29.93,WNW,290,0.0,8.0,94,0.00,,,0.00,Wunderground v.1.15,2013-01-13 06:00:00,
2013-01-13 00:05:00,30.9,29.4,29.93,NW,314,0.0,8.0,94,0.00,,,0.00,Wunderground v.1.15,2013-01-13 06:05:00,
2013-01-13 00:10:00,30.7,29.2,29.93,NW,321,0.0,8.0,94,0.00,,,0.00,Wunderground v.1.15,2013-01-13 06:10:00,
2013-01-13 00:15:00,30.7,29.2,29.94,NW,322,0.0,8.0,94,0.00,,,0.00,Wunderground v.1.15,2013-01-13 06:15:00,
2013-01-13 00:20:00,30.6,29.1,29.93,NNW,343,0.0,8.0,94,0.00,,,0.00,Wunderground v.1.15,2013-01-13 06:20:00,
2013-01-13 00:25:00,30.6,29.1,29.94,NNW,332,0.0,8.0,94,0.00,,,0.00,Wunderground v.1.15,2013-01-13 06:25:00,
2013-01-13 00:30:00,30.6,29.1,29.96,NW,309,0.0,8.0,94,0.00,,,0.00,Wunderground v.1.15,2013-01-13 06:30:00,
2013-01-13 00:35:00,30.6,29.1,29.96,West,269,0.0,8.0,94,0.00,,,0.00,Wunderground v.1.15,2013-01-13 06:35:00,
2013-01-13 00:45:00,30.4,28.9,29.98,WNW,291,0.0,8.0,94,0.00,,,0.00,Wunderground v.1.15,2013-01-13 06:45:00,
2013-01-13 00:50:00,30.3,28.8,29.98,NW,318,0.0,8.0,94,0.00,,,0.00,Wunderground v.1.15,2013-01-13 06:50:00,
2013-01-13 01:00:00,30.2,28.7,29.96,North,5,0.0,8.0,94,0.00,,,0.00,Wunderground v.1.15,2013-01-13 07:00:00,
2013-01-13 01:05:00,29.9,28.1,29.96,NNW,329,0.0,8.0,93,0.00,,,0.00,Wunderground v.1.15,2013-01-13 07:05:00,
2013-01-13 01:10:00,29.5,27.7,29.95,NNW,336,0.0,8.0,93,0.00,,,0.00,Wunderground v.1.15,2013-01-13 07:10:00,
2013-01-13 01:20:00,29.1,27.1,29.95,NNW,338,0.0,8.0,92,0.00,,,0.00,Wunderground v.1.15,2013-01-13 07:20:00,
2013-01-13 01:25:00,29.0,27.0,29.96,NNW,340,0.0,8.0,92,0.00,,,0.00,Wunderground v.1.15,2013-01-13 07:25:00,
2013-01-13 01:30:00,29.0,27.0,29.95,NW,317,0.0,8.0,92,0.00,,,0.00,Wunderground v.1.15,2013-01-13 07:30:00,
2013-01-13 01:35:00,28.9,26.6,29.96,NW,319,0.0,8.0,91,0.00,,,0.00,Wunderground v.1.15,2013-01-13 07:35:00,
2013-01-13 01:40:00,28.9,26.6,29.96,WNW,295,0.0,8.0,91,0.00,,,0.00,Wunderground v.1.15,2013-01-13 07:40:00,
2013-01-13 01:45:00,28.9,26.6,29.96,NNW,340,0.0,8.0,91,0.00,,,0.00,Wunderground v.1.15,2013-01-13 07:45:00,
2013-01-13 01:55:00,28.8,26.8,29.97,NNW,348,0.0,8.0,92,0.00,,,0.00,Wunderground v.1.15,2013-01-13 07:55:00,
2013-01-13 02:00:00,28.8,26.8,29.97,North,350,0.0,8.0,92,0.00,,,0.00,Wunderground v.1.15,2013-01-13 08:00:00,
2013-01-13 02:10:00,28.7,26.7,29.97,NNW,335,0.0,8.0,92,0.00,,,0.00,Wunderground v.1.15,2013-01-13 08:10:00,
2013-01-13 02:15:00,28.6,26.6,29.97,NNW,333,0.0,8.0,92,0.00,,,0.00,Wunderground v.1.15,2013-01-13 08:15:00,
2013-01-13 02:20:00,28.6,26.6,29.99,NNW,327,0.0,8.0,92,0.00,,,0.00,Wunderground v.1.15,2013-01-13 08:20:00,
2013-01-13 02:30:00,28.6,26.6,29.99,North,350,0.0,8.0,92,0.00,,,0.00,Wunderground v.1.15,2013-01-13 08:30:00,
2013-01-13 02:35:00,28.5,26.5,29.99,NNW,328,0.0,8.0,92,0.00,,,0.00,Wunderground v.1.15,2013-01-13 08:35:00,
2013-01-13 02:40:00,28.4,26.4,30.00,NNW,348,0.0,8.0,92,0.00,,,0.00,Wunderground v.1.15,2013-01-13 08:40:00,
2013-01-13 02:45:00,28.4,26.4,30.00,NNW,342,0.0,8.0,92,0.00,,,0.00,Wunderground v.1.15,2013-01-13 08:45:00,
2013-01-13 02:50:00,28.3,26.3,30.00,WNW,284,0.0,8.0,92,0.00,,,0.00,Wunderground v.1.15,2013-01-13 08:50:00,
2013-01-13 03:00:00,28.4,26.4,30.02,NNW,333,0.0,8.0,92,0.00,,,0.00,Wunderground v.1.15,2013-01-13 09:00:00,
2013-01-13 03:05:00,28.4,26.4,30.04,NW,314,0.0,8.0,92,0.00,,,0.00,Wunderground v.1.15,2013-01-13 09:05:00,
2013-01-13 03:10:00,28.4,26.4,30.04,NNW,347,0.0,8.0,92,0.00,,,0.00,Wunderground v.1.15,2013-01-13 09:10:00,
2013-01-13 03:20:00,27.8,25.5,30.02,NW,319,0.0,8.0,91,0.00,,,0.00,Wunderground v.1.15,2013-01-13 09:20:00,
2013-01-13 03:25:00,27.6,25.3,30.04,North,355,0.0,8.0,91,0.00,,,0.00,Wunderground v.1.15,2013-01-13 09:25:00,
2013-01-13 03:35:00,27.4,25.1,30.04,WNW,301,0.0,8.0,91,0.00,,,0.00,Wunderground v.1.15,2013-01-13 09:35:00,
2013-01-13 03:40:00,27.4,25.1,30.05,NW,323,0.0,8.0,91,0.00,,,0.00,Wunderground v.1.15,2013-01-13 09:40:00,
2013-01-13 03:45:00,27.3,25.0,30.03,NNW,333,0.0,8.0,91,0.00,,,0.00,Wunderground v.1.15,2013-01-13 09:45:00,
2013-01-13 03:50:00,27.2,24.9,30.04,NNW,327,0.0,8.0,91,0.00,,,0.00,Wunderground v.1.15,2013-01-13 09:50:00,
2013-01-13 03:55:00,27.2,24.9,30.03,North,355,0.0,8.0,91,0.00,,,0.00,Wunderground v.1.15,2013-01-13 09:55:00,
2013-01-13 04:00:00,27.0,24.7,30.01,NW,309,0.0,8.0,91,0.00,,,0.00,Wunderground v.1.15,2013-01-13 10:00:00,
2013-01-13 04:10:00,26.5,24.0,30.02,NW,315,0.0,8.0,90,0.00,,,0.00,Wunderground v.1.15,2013-01-13 10:10:00,
2013-01-13 04:15:00,26.3,23.8,30.03,WNW,290,0.0,8.0,90,0.00,,,0.00,Wunderground v.1.15,2013-01-13 10:15:00,
2013-01-13 04:25:00,26.2,23.4,30.03,NW,311,0.0,8.0,89,0.00,,,0.00,Wunderground v.1.15,2013-01-13 10:25:00,
2013-01-13 04:30:00,26.2,23.7,30.02,NW,308,0.0,8.0,90,0.00,,,0.00,Wunderground v.1.15,2013-01-13 10:30:00,
2013-01-13 04:35:00,26.0,23.5,30.02,NW,311,0.0,8.0,90,0.00,,,0.00,Wunderground v.1.15,2013-01-13 10:35:00,
2013-01-13 04:45:00,25.5,23.0,30.03,NNW,328,0.0,8.0,90,0.00,,,0.00,Wunderground v.1.15,2013-01-13 10:45:00,
2013-01-13 04:50:00,25.4,22.9,30.01,NNW,337,0.0,8.0,90,0.00,,,0.00,Wunderground v.1.15,2013-01-13 10:50:00,
2013-01-13 04:55:00,25.3,22.8,30.01,WNW,289,0.0,8.0,90,0.00,,,0.00,Wunderground v.1.15,2013-01-13 10:55:00,
2013-01-13 05:00:00,25.2,22.7,30.01,West,279,0.0,8.0,90,0.00,,,0.00,Wunderground v.1.15,2013-01-13 11:00:00,
2013-01-13 05:05:00,25.1,22.6,30.02,NW,319,0.0,8.0,90,0.00,,,0.00,Wunderground v.1.15,2013-01-13 11:05:00,
2013-01-13 05:15:00,25.0,22.5,30.02,NW,306,0.0,0.0,90,0.00,,,0.00,Wunderground v.1.15,2013-01-13 11:15:00,
2013-01-13 05:20:00,24.9,22.4,30.04,WNW,300,0.0,0.0,90,0.00,,,0.00,Wunderground v.1.15,2013-01-13 11:20:00,
2013-01-13 05:25:00,24.9,22.4,30.04,WNW,299,0.0,0.0,90,0.00,,,0.00,Wunderground v.1.15,2013-01-13 11:25:00,
2013-01-13 05:30:00,24.9,22.4,30.05,NW,322,0.0,0.0,90,0.00,,,0.00,Wunderground v.1.15,2013-01-13 11:30:00,
2013-01-13 05:35:00,24.9,22.4,30.04,NW,318,0.0,0.0,90,0.00,,,0.00,Wunderground v.1.15,2013-01-13 11:35:00,
2013-01-13 05:40:00,24.8,22.3,30.05,NW,325,0.0,0.0,90,0.00,,,0.00,Wunderground v.1.15,2013-01-13 11:40:00,
2013-01-13 05:50:00,24.9,22.4,30.07,NNW,330,0.0,0.0,90,0.00,,,0.00,Wunderground v.1.15,2013-01-13 11:50:00,
2013-01-13 05:55:00,24.9,22.4,30.07,NNW,334,0.0,0.0,90,0.00,,,0.00,Wunderground v.1.15,2013-01-13 11:55:00,
2013-01-13 06:00:00,24.8,22.3,30.07,NNW,337,0.0,0.0,90,0.00,,,0.00,Wunderground v.1.15,2013-01-13 12:00:00,
2013-01-13 06:10:00,24.7,21.9,30.07,NW,309,0.0,0.0,89,0.00,,,0.00,Wunderground v.1.15,2013-01-13 12:10:00,
2013-01-13 06:15:00,24.6,21.8,30.09,WNW,288,0.0,0.0,89,0.00,,,0.00,Wunderground v.1.15,2013-01-13 12:15:00,
2013-01-13 06:25:00,24.6,21.8,30.10,WNW,284,0.0,0.0,89,0.00,,,0.00,Wunderground v.1.15,2013-01-13 12:25:00,
2013-01-13 06:30:00,24.5,21.7,30.07,NW,325,0.0,0.0,89,0.00,,,0.00,Wunderground v.1.15,2013-01-13 12:30:00,
2013-01-13 06:35:00,24.5,21.7,30.10,WNW,299,0.0,0.0,89,0.00,,,0.00,Wunderground v.1.15,2013-01-13 12:35:00,
2013-01-13 06:40:00,24.5,21.7,30.08,NW,311,0.0,0.0,89,0.00,,,0.00,Wunderground v.1.15,2013-01-13 12:40:00,
2013-01-13 06:45:00,24.5,21.7,30.07,NW,307,0.0,0.0,89,0.00,,,0.00,Wunderground v.1.15,2013-01-13 12:45:00,
2013-01-13 06:50:00,24.5,21.7,30.07,WNW,302,0.0,0.0,89,0.00,,,0.00,Wunderground v.1.15,2013-01-13 12:50:00,
2013-01-13 07:00:00,24.5,21.7,30.10,WNW,298,0.0,0.0,89,0.00,,,0.00,Wunderground v.1.15,2013-01-13 13:00:00,
2013-01-13 07:10:00,24.4,21.6,30.09,WNW,302,0.0,0.0,89,0.00,,,0.00,Wunderground v.1.15,2013-01-13 13:10:00,
2013-01-13 07:15:00,24.4,21.6,30.10,West,265,0.0,0.0,89,0.00,,,0.00,Wunderground v.1.15,2013-01-13 13:15:00,
2013-01-13 07:20:00,24.4,21.6,30.11,NNW,336,0.0,0.0,89,0.00,,,0.00,Wunderground v.1.15,2013-01-13 13:20:00,
2013-01-13 07:25:00,24.4,21.4,30.12,NW,325,0.0,0.0,88,0.00,,,0.00,Wunderground v.1.15,2013-01-13 13:25:00,
2013-01-13 07:35:00,24.4,21.6,30.11,NW,322,0.0,0.0,89,0.00,,,0.00,Wunderground v.1.15,2013-01-13 13:35:00,
2013-01-13 07:40:00,24.4,21.4,30.14,West,280,0.0,0.0,88,0.00,,,0.00,Wunderground v.1.15,2013-01-13 13:40:00,
2013-01-13 07:45:00,24.3,21.3,30.13,NW,317,0.0,0.0,88,0.00,,,0.00,Wunderground v.1.15,2013-01-13 13:45:00,
2013-01-13 07:50:00,24.3,21.0,30.12,West,271,0.0,0.0,87,0.00,,,0.00,Wunderground v.1.15,2013-01-13 13:50:00,
2013-01-13 08:00:00,24.2,20.9,30.14,West,279,0.0,0.0,87,0.00,,,0.00,Wunderground v.1.15,2013-01-13 14:00:00,
2013-01-13 08:10:00,24.0,20.4,30.10,NNW,328,0.0,0.0,86,0.00,,,0.00,Wunderground v.1.15,2013-01-13 14:10:00,
2013-01-13 08:15:00,24.0,20.7,30.15,West,279,0.0,0.0,87,0.00,,,0.00,Wunderground v.1.15,2013-01-13 14:15:00,
2013-01-13 08:20:00,24.0,20.4,30.13,WNW,296,0.0,0.0,86,0.00,,,0.00,Wunderground v.1.15,2013-01-13 14:20:00,
2013-01-13 08:25:00,24.0,20.7,30.13,NW,309,0.0,0.0,87,0.00,,,0.00,Wunderground v.1.15,2013-01-13 14:25:00,
2013-01-13 08:30:00,24.0,20.7,30.10,North,360,0.0,0.0,87,0.00,,,0.00,Wunderground v.1.15,2013-01-13 14:30:00,
2013-01-13 08:40:00,23.9,20.3,30.11,NW,304,0.0,0.0,86,0.00,,,0.00,Wunderground v.1.15,2013-01-13 14:40:00,
2013-01-13 08:45:00,23.9,20.6,30.11,NW,313,0.0,0.0,87,0.00,,,0.00,Wunderground v.1.15,2013-01-13 14:45:00,
2013-01-13 08:50:00,24.0,20.7,30.11,NNW,327,0.0,0.0,87,0.00,,,0.00,Wunderground v.1.15,2013-01-13 14:50:00,
2013-01-13 08:55:00,24.0,20.7,30.11,NW,324,0.0,0.0,87,0.00,,,0.00,Wunderground v.1.15,2013-01-13 14:55:00,
2013-01-13 09:00:00,24.0,20.7,30.11,NW,314,0.0,0.0,87,0.00,,,0.00,Wunderground v.1.15,2013-01-13 15:00:00,
2013-01-13 09:10:00,24.0,20.7,30.08,NW,306,0.0,0.0,87,0.00,,,0.00,Wunderground v.1.15,2013-01-13 15:10:00,
2013-01-13 09:20:00,24.1,21.1,30.10,North,349,0.0,0.0,88,0.00,,,0.00,Wunderground v.1.15,2013-01-13 15:20:00,
2013-01-13 09:25:00,23.8,20.5,30.11,WNW,294,0.0,0.0,87,0.00,,,0.00,Wunderground v.1.15,2013-01-13 15:25:00,
2013-01-13 09:30:00,23.5,19.9,30.11,NW,318,0.0,0.0,86,0.00,,,0.00,Wunderground v.1.15,2013-01-13 15:30:00,
2013-01-13 09:35:00,23.5,19.7,30.12,NW,311,0.0,0.0,85,0.00,,,0.00,Wunderground v.1.15,2013-01-13 15:35:00,
2013-01-13 09:40:00,23.4,19.6,30.13,NNW,327,0.0,0.0,85,0.00,,,0.00,Wunderground v.1.15,2013-01-13 15:40:00,
2013-01-13 09:50:00,23.4,19.6,30.13,NNW,334,0.0,0.0,85,0.00,,,0.00,Wunderground v.1.15,2013-01-13 15:50:00,
2013-01-13 09:55:00,23.3,19.5,30.13,NW,310,0.0,0.0,85,0.00,,,0.00,Wunderground v.1.15,2013-01-13 15:55:00,
2013-01-13 10:00:00,23.2,19.4,30.13,NW,307,0.0,0.0,85,0.00,,,0.00,Wunderground v.1.15,2013-01-13 16:00:00,
2013-01-13 10:05:00,23.1,19.0,30.13,WNW,292,0.0,0.0,84,0.00,,,0.00,Wunderground v.1.15,2013-01-13 16:05:00,
2013-01-13 10:15:00,22.8,18.7,30.15,WNW,295,0.0,0.0,84,0.00,,,0.00,Wunderground v.1.15,2013-01-13 16:15:00,
2013-01-13 10:25:00,22.8,18.7,30.16,WNW,284,0.0,0.0,84,0.00,,,0.00,Wunderground v.1.15,2013-01-13 16:25:00,
2013-01-13 10:30:00,22.8,18.7,30.16,WNW,292,0.0,0.0,84,0.00,,,0.00,Wunderground v.1.15,2013-01-13 16:30:00,
2013-01-13 10:35:00,22.7,18.6,30.17,West,281,0.0,0.0,84,0.00,,,0.00,Wunderground v.1.15,2013-01-13 16:35:00,
2013-01-13 10:40:00,22.6,18.2,30.16,WNW,290,0.0,0.0,83,0.00,,,0.00,Wunderground v.1.15,2013-01-13 16:40:00,
2013-01-13 10:45:00,22.5,17.8,30.16,WNW,299,0.0,3.0,82,0.00,,,0.00,Wunderground v.1.15,2013-01-13 16:45:00,
2013-01-13 10:55:00,22.6,18.2,30.18,NW,305,3.0,5.0,83,0.00,,,0.00,Wunderground v.1.15,2013-01-13 16:55:00,
2013-01-13 11:00:00,22.6,18.5,30.20,West,281,3.0,3.0,84,0.00,,,0.00,Wunderground v.1.15,2013-01-13 17:00:00,
2013-01-13 11:05:00,22.7,18.6,30.19,West,264,3.0,3.0,84,0.00,,,0.00,Wunderground v.1.15,2013-01-13 17:05:00,
2013-01-13 11:10:00,22.7,18.6,30.18,West,275,3.0,4.0,84,0.00,,,0.00,Wunderground v.1.15,2013-01-13 17:10:00,
2013-01-13 11:20:00,22.6,18.8,30.16,WNW,296,4.0,4.0,85,0.00,,,0.00,Wunderground v.1.15,2013-01-13 17:20:00,
2013-01-13 11:30:00,22.6,18.8,30.15,NW,317,3.0,3.0,85,0.00,,,0.00,Wunderground v.1.15,2013-01-13 17:30:00,
2013-01-13 11:35:00,22.7,18.9,30.15,WNW,288,3.0,3.0,85,0.00,,,0.00,Wunderground v.1.15,2013-01-13 17:35:00,
2013-01-13 11:40:00,22.5,18.7,30.13,NW,304,4.0,7.0,85,0.00,,,0.00,Wunderground v.1.15,2013-01-13 17:40:00,
2013-01-13 11:45:00,22.5,18.7,30.14,WNW,296,5.0,7.0,85,0.00,,,0.00,Wunderground v.1.15,2013-01-13 17:45:00,
2013-01-13 11:50:00,22.4,18.6,30.13,NW,312,5.0,5.0,85,0.00,,,0.00,Wunderground v.1.15,2013-01-13 17:50:00,
2013-01-13 11:55:00,22.3,18.5,30.13,NW,317,5.0,7.0,85,0.00,,,0.00,Wunderground v.1.15,2013-01-13 17:55:00,
2013-01-13 12:05:00,22.2,17.8,30.14,NW,315,5.0,6.0,83,0.00,,,0.00,Wunderground v.1.15,2013-01-13 18:05:00,
2013-01-13 12:10:00,22.0,17.6,30.13,NW,317,6.0,9.0,83,0.00,,,0.00,Wunderground v.1.15,2013-01-13 18:10:00,
2013-01-13 12:15:00,22.0,17.6,30.13,WNW,291,6.0,9.0,83,0.00,,,0.00,Wunderground v.1.15,2013-01-13 18:15:00,
2013-01-13 12:20:00,22.0,17.6,30.13,NW,321,5.0,6.0,83,0.00,,,0.00,Wunderground v.1.15,2013-01-13 18:20:00,
2013-01-13 12:30:00,22.0,17.6,30.14,WNW,290,5.0,5.0,83,0.00,,,0.00,Wunderground v.1.15,2013-01-13 18:30:00,
2013-01-13 12:40:00,22.0,17.6,30.13,NW,323,5.0,5.0,83,0.00,,,0.00,Wunderground v.1.15,2013-01-13 18:40:00,
2013-01-13 12:45:00,22.1,18.0,30.14,WNW,290,4.0,5.0,84,0.00,,,0.00,Wunderground v.1.15,2013-01-13 18:45:00,
2013-01-13 12:50:00,22.2,18.1,30.13,WNW,288,4.0,7.0,84,0.00,,,0.00,Wunderground v.1.15,2013-01-13 18:50:00,
2013-01-13 12:55:00,22.0,17.6,30.14,WNW,302,5.0,7.0,83,0.00,,,0.00,Wunderground v.1.15,2013-01-13 18:55:00,
2013-01-13 13:00:00,22.2,18.1,30.14,NW,306,4.0,7.0,84,0.00,,,0.00,Wunderground v.1.15,2013-01-13 19:00:00,
2013-01-13 13:10:00,22.2,17.8,30.14,WNW,285,5.0,6.0,83,0.00,,,0.00,Wunderground v.1.15,2013-01-13 19:10:00,
2013-01-13 13:15:00,22.4,18.3,30.14,WNW,292,5.0,6.0,84,0.00,,,0.00,Wunderground v.1.15,2013-01-13 19:15:00,
2013-01-13 13:25:00,22.6,18.5,30.14,WNW,286,5.0,7.0,84,0.00,,,0.00,Wunderground v.1.15,2013-01-13 19:25:00,
2013-01-13 13:30:00,22.9,18.8,30.15,WNW,288,5.0,5.0,84,0.00,,,0.00,Wunderground v.1.15,2013-01-13 19:30:00,
2013-01-13 13:35:00,23.0,18.9,30.15,NW,308,5.0,9.0,84,0.00,,,0.00,Wunderground v.1.15,2013-01-13 19:35:00,
2013-01-13 13:45:00,23.0,18.3,30.15,WNW,303,6.0,9.0,82,0.00,,,0.00,Wunderground v.1.15,2013-01-13 19:45:00,
2013-01-13 13:50:00,22.7,18.0,30.15,NW,316,7.0,7.0,82,0.00,,,0.00,Wunderground v.1.15,2013-01-13 19:50:00,
2013-01-13 13:55:00,22.6,17.6,30.15,WNW,284,6.0,10.0,81,0.00,,,0.00,Wunderground v.1.15,2013-01-13 19:55:00,
2013-01-13 14:00:00,22.5,17.5,30.16,NNW,331,6.0,6.0,81,0.00,,,0.00,Wunderground v.1.15,2013-01-13 20:00:00,
2013-01-13 14:05:00,22.5,17.5,30.16,WNW,283,6.0,6.0,81,0.00,,,0.00,Wunderground v.1.15,2013-01-13 20:05:00,
2013-01-13 14:10:00,22.5,17.5,30.15,WSW,253,6.0,6.0,81,0.00,,,0.00,Wunderground v.1.15,2013-01-13 20:10:00,
2013-01-13 14:20:00,23.0,18.3,30.16,WNW,298,6.0,6.0,82,0.00,,,0.00,Wunderground v.1.15,2013-01-13 20:20:00,
2013-01-13 14:25:00,23.6,19.2,30.17,NW,324,5.0,6.0,83,0.00,,,0.00,Wunderground v.1.15,2013-01-13 20:25:00,
2013-01-13 14:35:00,24.2,19.5,30.17,NNW,329,4.0,7.0,82,0.00,,,0.00,Wunderground v.1.15,2013-01-13 20:35:00,
2013-01-13 14:40:00,24.5,19.8,30.18,WNW,283,5.0,7.0,82,0.00,,,0.00,Wunderground v.1.15,2013-01-13 20:40:00,
2013-01-13 14:45:00,24.2,18.9,30.18,WNW,293,6.0,7.0,80,0.00,,,0.00,Wunderground v.1.15,2013-01-13 20:45:00,
2013-01-13 14:55:00,24.1,18.8,30.19,NW,317,5.0,8.0,80,0.00,,,0.00,Wunderground v.1.15,2013-01-13 20:55:00,
2013-01-13 15:00:00,23.4,17.8,30.20,NW,325,6.0,7.0,79,0.00,,,0.00,Wunderground v.1.15,2013-01-13 21:00:00,
2013-01-13 15:05:00,23.3,18.0,30.20,WNW,295,6.0,7.0,80,0.00,,,0.00,Wunderground v.1.15,2013-01-13 21:05:00,
2013-01-13 15:10:00,23.9,19.2,30.20,WNW,294,4.0,6.0,82,0.00,,,0.00,Wunderground v.1.15,2013-01-13 21:10:00,
2013-01-13 15:15:00,24.4,19.4,30.22,WSW,255,5.0,8.0,81,0.00,,,0.00,Wunderground v.1.15,2013-01-13 21:15:00,
2013-01-13 15:25:00,23.9,18.9,30.23,West,275,5.0,6.0,81,0.00,,,0.00,Wunderground v.1.15,2013-01-13 21:25:00,
2013-01-13 15:30:00,23.7,18.4,30.24,West,276,5.0,5.0,80,0.00,,,0.00,Wunderground v.1.15,2013-01-13 21:30:00,
2013-01-13 15:40:00,23.4,18.1,30.24,WSW,250,4.0,7.0,80,0.00,,,0.00,Wunderground v.1.15,2013-01-13 21:40:00,
2013-01-13 15:45:00,23.6,18.3,30.24,WNW,296,4.0,7.0,80,0.00,,,0.00,Wunderground v.1.15,2013-01-13 21:45:00,
2013-01-13 15:50:00,23.7,18.4,30.24,West,276,4.0,5.0,80,0.00,,,0.00,Wunderground v.1.15,2013-01-13 21:50:00,
2013-01-13 16:00:00,23.8,18.5,30.25,WNW,293,4.0,4.0,80,0.00,,,0.00,Wunderground v.1.15,2013-01-13 22:00:00,
2013-01-13 16:05:00,24.0,19.0,30.25,West,281,3.0,4.0,81,0.00,,,0.00,Wunderground v.1.15,2013-01-13 22:05:00,
2013-01-13 16:10:00,24.3,19.3,30.25,WSW,255,3.0,4.0,81,0.00,,,0.00,Wunderground v.1.15,2013-01-13 22:10:00,
2013-01-13 16:15:00,24.3,19.0,30.25,WNW,286,3.0,4.0,80,0.00,,,0.00,Wunderground v.1.15,2013-01-13 22:15:00,
2013-01-13 16:20:00,24.2,18.6,30.26,WNW,282,4.0,4.0,79,0.00,,,0.00,Wunderground v.1.15,2013-01-13 22:20:00,
2013-01-13 16:25:00,24.0,18.4,30.26,West,277,4.0,6.0,79,0.00,,,0.00,Wunderground v.1.15,2013-01-13 22:25:00,
2013-01-13 16:35:00,23.6,18.0,30.25,NW,311,3.0,6.0,79,0.00,,,0.00,Wunderground v.1.15,2013-01-13 22:35:00,
2013-01-13 16:45:00,23.4,18.1,30.26,WNW,290,3.0,3.0,80,0.00,,,0.00,Wunderground v.1.15,2013-01-13 22:45:00,
2013-01-13 16:50:00,23.3,18.0,30.26,West,276,3.0,3.0,80,0.00,,,0.00,Wunderground v.1.15,2013-01-13 22:50:00,
2013-01-13 16:55:00,23.1,17.8,30.27,West,280,2.0,4.0,80,0.00,,,0.00,Wunderground v.1.15,2013-01-13 22:55:00,
2013-01-13 17:00:00,23.0,17.7,30.27,NW,307,2.0,3.0,80,0.00,,,0.00,Wunderground v.1.15,2013-01-13 23:00:00,
2013-01-13 17:05:00,22.9,17.9,30.27,NW,307,3.0,3.0,81,0.00,,,0.00,Wunderground v.1.15,2013-01-13 23:05:00,
2013-01-13 17:10:00,22.7,17.7,30.27,NW,304,2.0,2.0,81,0.00,,,0.00,Wunderground v.1.15,2013-01-13 23:10:00,
2013-01-13 17:15:00,22.6,17.6,30.28,WNW,296,1.0,3.0,81,0.00,,,0.00,Wunderground v.1.15,2013-01-13 23:15:00,
2013-01-13 17:20:00,22.5,17.5,30.28,NW,305,2.0,3.0,81,0.00,,,0.00,Wunderground v.1.15,2013-01-13 23:20:00,
2013-01-13 17:25:00,22.5,17.5,30.28,NW,309,3.0,3.0,81,0.00,,,0.00,Wunderground v.1.15,2013-01-13 23:25:00,
2013-01-13 17:35:00,22.3,17.4,30.28,NW,307,1.0,2.0,81,0.00,,,0.00,Wunderground v.1.15,2013-01-13 23:35:00,
2013-01-13 17:45:00,22.0,17.3,30.28,NW,306,1.0,1.0,82,0.00,,,0.00,Wunderground v.1.15,2013-01-13 23:45:00,
2013-01-13 17:50:00,21.8,17.2,30.28,NW,306,1.0,1.0,82,0.00,,,0.00,Wunderground v.1.15,2013-01-13 23:50:00,
2013-01-13 17:55:00,21.7,17.1,30.28,NW,306,1.0,1.0,82,0.00,,,0.00,Wunderground v.1.15,2013-01-13 23:55:00,
2013-01-13 18:00:00,21.6,17.0,30.28,WNW,300,1.0,1.0,82,0.00,,,0.00,Wunderground v.1.15,2013-01-14 00:00:00,
2013-01-13 18:05:00,21.5,16.6,30.29,WNW,298,2.0,2.0,81,0.00,,,0.00,Wunderground v.1.15,2013-01-14 00:05:00,
2013-01-13 18:15:00,21.3,16.1,30.29,WNW,296,1.0,3.0,80,0.00,,,0.00,Wunderground v.1.15,2013-01-14 00:15:00,
2013-01-13 18:20:00,21.2,16.0,30.30,WNW,296,2.0,2.0,80,0.00,,,0.00,Wunderground v.1.15,2013-01-14 00:20:00,
2013-01-13 18:25:00,21.1,15.9,30.30,WNW,296,2.0,2.0,80,0.00,,,0.00,Wunderground v.1.15,2013-01-14 00:25:00,
2013-01-13 18:35:00,20.8,15.6,30.30,WNW,296,0.0,1.0,80,0.00,,,0.00,Wunderground v.1.15,2013-01-14 00:35:00,
2013-01-13 18:40:00,20.7,15.8,30.30,WNW,296,0.0,0.0,81,0.00,,,0.00,Wunderground v.1.15,2013-01-14 00:40:00,
2013-01-13 18:50:00,20.4,15.5,30.31,WNW,296,1.0,1.0,81,0.00,,,0.00,Wunderground v.1.15,2013-01-14 00:50:00,
2013-01-13 18:55:00,20.3,15.7,30.31,WNW,296,1.0,1.0,82,0.00,,,0.00,Wunderground v.1.15,2013-01-14 00:55:00,
2013-01-13 19:00:00,20.2,15.6,30.31,WNW,296,0.0,0.0,82,0.00,,,0.00,Wunderground v.1.15,2013-01-14 01:00:00,
2013-01-13 19:05:00,20.2,15.9,30.31,WNW,296,1.0,1.0,83,0.00,,,0.00,Wunderground v.1.15,2013-01-14 01:05:00,
2013-01-13 19:10:00,20.1,15.5,30.31,WNW,296,1.0,1.0,82,0.00,,,0.00,Wunderground v.1.15,2013-01-14 01:10:00,
2013-01-13 19:15:00,20.0,15.7,30.31,WNW,296,0.0,1.0,83,0.00,,,0.00,Wunderground v.1.15,2013-01-14 01:15:00,
2013-01-13 19:25:00,19.7,15.4,30.31,WNW,296,0.0,0.0,83,0.00,,,0.00,Wunderground v.1.15,2013-01-14 01:25:00,
2013-01-13 19:30:00,19.7,15.4,30.31,WNW,296,0.0,0.0,83,0.00,,,0.00,Wunderground v.1.15,2013-01-14 01:30:00,
2013-01-13 19:35:00,19.7,15.4,30.31,WNW,296,0.0,0.0,83,0.00,,,0.00,Wunderground v.1.15,2013-01-14 01:35:00,
2013-01-13 19:45:00,19.5,15.2,30.31,WNW,296,0.0,0.0,83,0.00,,,0.00,Wunderground v.1.15,2013-01-14 01:45:00,
2013-01-13 19:50:00,19.4,15.4,30.31,WNW,296,0.0,0.0,84,0.00,,,0.00,Wunderground v.1.15,2013-01-14 01:50:00,
2013-01-13 20:00:00,19.2,15.2,30.31,WNW,296,0.0,0.0,84,0.00,,,0.00,Wunderground v.1.15,2013-01-14 02:00:00,
2013-01-13 20:05:00,19.2,15.2,30.31,WNW,296,0.0,0.0,84,0.00,,,0.00,Wunderground v.1.15,2013-01-14 02:05:00,
2013-01-13 20:10:00,19.1,15.1,30.31,WNW,296,0.0,0.0,84,0.00,,,0.00,Wunderground v.1.15,2013-01-14 02:10:00,
2013-01-13 20:15:00,19.1,15.1,30.31,WNW,296,0.0,0.0,84,0.00,,,0.00,Wunderground v.1.15,2013-01-14 02:15:00,
2013-01-13 20:20:00,19.0,15.0,30.31,WNW,296,0.0,0.0,84,0.00,,,0.00,Wunderground v.1.15,2013-01-14 02:20:00,
2013-01-13 20:30:00,18.9,14.9,30.31,WNW,296,0.0,0.0,84,0.00,,,0.00,Wunderground v.1.15,2013-01-14 02:30:00,
2013-01-13 20:35:00,18.8,14.8,30.32,WNW,296,0.0,0.0,84,0.00,,,0.00,Wunderground v.1.15,2013-01-14 02:35:00,
2013-01-13 20:40:00,18.7,14.7,30.32,WNW,296,0.0,0.0,84,0.00,,,0.00,Wunderground v.1.15,2013-01-14 02:40:00,
2013-01-13 20:45:00,18.7,14.9,30.32,WNW,296,0.0,0.0,85,0.00,,,0.00,Wunderground v.1.15,2013-01-14 02:45:00,
2013-01-13 20:55:00,18.7,14.9,30.32,WNW,296,0.0,0.0,85,0.00,,,0.00,Wunderground v.1.15,2013-01-14 02:55:00,
2013-01-13 21:05:00,18.6,14.8,30.32,WNW,296,0.0,0.0,85,0.00,,,0.00,Wunderground v.1.15,2013-01-14 03:05:00,
2013-01-13 21:10:00,18.6,14.8,30.32,WNW,296,0.0,0.0,85,0.00,,,0.00,Wunderground v.1.15,2013-01-14 03:10:00,
2013-01-13 21:15:00,18.6,14.8,30.32,WNW,296,0.0,0.0,85,0.00,,,0.00,Wunderground v.1.15,2013-01-14 03:15:00,
2013-01-13 21:20:00,18.5,14.7,30.33,WNW,296,0.0,0.0,85,0.00,,,0.00,Wunderground v.1.15,2013-01-14 03:20:00,
2013-01-13 21:25:00,18.4,14.6,30.33,WNW,296,0.0,0.0,85,0.00,,,0.00,Wunderground v.1.15,2013-01-14 03:25:00,
2013-01-13 21:30:00,18.2,14.2,30.33,WNW,296,0.0,0.0,84,0.00,,,0.00,Wunderground v.1.15,2013-01-14 03:30:00,
2013-01-13 21:40:00,17.9,14.2,30.34,WNW,296,0.0,0.0,85,0.00,,,0.00,Wunderground v.1.15,2013-01-14 03:40:00,
2013-01-13 21:45:00,17.8,14.1,30.33,WNW,296,0.0,0.0,85,0.00,,,0.00,Wunderground v.1.15,2013-01-14 03:45:00,
2013-01-13 21:50:00,17.6,13.9,30.34,WNW,296,0.0,0.0,85,0.00,,,0.00,Wunderground v.1.15,2013-01-14 03:50:00,
2013-01-13 22:00:00,17.3,13.8,30.35,WNW,296,0.0,0.0,86,0.00,,,0.00,Wunderground v.1.15,2013-01-14 04:00:00,
2013-01-13 22:05:00,17.2,13.7,30.34,WNW,296,0.0,0.0,86,0.00,,,0.00,Wunderground v.1.15,2013-01-14 04:05:00,
2013-01-13 22:15:00,17.1,13.6,30.35,WNW,296,0.0,0.0,86,0.00,,,0.00,Wunderground v.1.15,2013-01-14 04:15:00,
2013-01-13 22:20:00,17.0,13.8,30.35,WNW,296,0.0,0.0,87,0.00,,,0.00,Wunderground v.1.15,2013-01-14 04:20:00,
2013-01-13 22:25:00,16.8,13.6,30.35,WNW,296,0.0,0.0,87,0.00,,,0.00,Wunderground v.1.15,2013-01-14 04:25:00,
2013-01-13 22:30:00,16.8,13.6,30.35,WNW,296,0.0,0.0,87,0.00,,,0.00,Wunderground v.1.15,2013-01-14 04:30:00,
2013-01-13 22:35:00,16.8,13.6,30.35,WNW,296,0.0,0.0,87,0.00,,,0.00,Wunderground v.1.15,2013-01-14 04:35:00,
2013-01-13 22:45:00,16.8,13.6,30.36,WNW,296,0.0,0.0,87,0.00,,,0.00,Wunderground v.1.15,2013-01-14 04:45:00,
2013-01-13 22:50:00,16.7,13.5,30.36,WNW,296,0.0,0.0,87,0.00,,,0.00,Wunderground v.1.15,2013-01-14 04:50:00,
2013-01-13 22:55:00,16.5,13.3,30.37,WNW,296,0.0,0.0,87,0.00,,,0.00,Wunderground v.1.15,2013-01-14 04:55:00,
2013-01-13 23:05:00,16.5,13.6,30.38,WNW,296,0.0,0.0,88,0.00,,,0.00,Wunderground v.1.15,2013-01-14 05:05:00,
2013-01-13 23:10:00,16.7,13.8,30.38,WNW,296,0.0,0.0,88,0.00,,,0.00,Wunderground v.1.15,2013-01-14 05:10:00,
2013-01-13 23:15:00,16.8,13.9,30.38,WNW,296,0.0,0.0,88,0.00,,,0.00,Wunderground v.1.15,2013-01-14 05:15:00,
2013-01-13 23:25:00,16.6,13.7,30.39,WNW,296,0.0,0.0,88,0.00,,,0.00,Wunderground v.1.15,2013-01-14 05:25:00,
2013-01-13 23:30:00,16.3,13.4,30.40,WNW,296,0.0,0.0,88,0.00,,,0.00,Wunderground v.1.15,2013-01-14 05:30:00,
2013-01-13 23:35:00,16.2,13.3,30.40,WNW,296,0.0,0.0,88,0.00,,,0.00,Wunderground v.1.15,2013-01-14 05:35:00,
2013-01-13 23:40:00,16.3,13.4,30.40,WNW,296,0.0,0.0,88,0.00,,,0.00,Wunderground v.1.15,2013-01-14 05:40:00,
2013-01-13 23:50:00,16.6,13.7,30.40,WNW,296,0.0,0.0,88,0.00,,,0.00,Wunderground v.1.15,2013-01-14 05:50:00,